Location: *
(46.1833°N, 22.7667°E)
Time: 07:17:28
(UTC+00:00)

H-2A R/B - Pass Details

Date: 17 September 2019
Orbit: 734 x 836 km, 98.3° (Epoch: 18 October)

Event Time Altitude Azimuth Distance (km) Brightness Sun altitude
Exits shadow 17:54:53 16° 139° (SE) 1,847 3.5 -14.0°
Maximum altitude 17:58:34 49° 70° (ENE) 962 2.2 -14.6°
Drops below altitude 10° 18:03:23 10° 356° (N) 2,292 4.8 -15.4°
Sets 18:05:46 0° 352° (N) 3,235 5.7 -15.8°
